Location: Noverd
(38.0910°N, 121.6877°W)
Time: 02:25:22
(UTC+00:00)

Cosmos 1484 Rocket - Pass Details

Date: 13 February 2026
Orbit: 436 x 464 km, 97.6° (Epoch: 13 March)

Event Time Altitude Azimuth Distance (km) Brightness Sun altitude
Rises 13:45:02 0° 18° (NNE) 2,514 6.4 -15.1°
Reaches altitude 10° 13:47:09 10° 24° (NNE) 1,634 5.5 -14.7°
Maximum altitude 13:50:32 47° 100° (E) 634 3.6 -14.0°
Drops below altitude 10° 13:53:54 10° 175° (S) 1,617 5.4 -13.4°
Sets 13:55:59 0° 181° (S) 2,485 6.2 -13.0°
